User: anonymous   Login
Location: Unspecified
(0.0000°N, 0.0000°E)
Time: 16:02:16
(UTC+02:00)
Language:

AO-7 - Orbit

View from above orbital plane
View from above orbital plane
View from above satellite
View from above satellite

Ground track
Ground track

The orbit data is extracted from the following two-line orbital elements,

1 07530U 74089B   16240.87397794 -.00000040  00000-0  25178-4 0  9992
2 07530 101.5833 209.9049 0011934 169.4989 218.6774 12.53622656912101
Epoch (UTC): 27 August 2016 20:58:31
Eccentricity: 0.0011934
inclination: 101.5833°
perigee height: 1440 km
apogee height: 1459 km
right ascension of ascending node: 209.9049°
argument of perigee: 169.4989°
revolutions per day: 12.53622656
mean anomaly at epoch: 218.6774°
orbit number at epoch: 91210

The dashed part of the orbit path shows where the satellite is in the earth's shadow,  

DLR